Погода в Сергиевском

Россия / Ставропольский край     44°57′19″N   42°42′32″E
темп.,
°C
ветер,
м/с
пор.,
м/с
влажн.,
%
обл.,
%
осадки,
мм/ч
давл.,
гПа
погр.,
м
25 мая, ср
ср2500:00+9зюз369399 0.1 1016208
03:00+8зюз369469 0.2 1017164
06:00+10зюз259167 0.1 1018246
09:00+15з45605 0.7 10181335
12:00+17зсз564670 0.0 10182338
15:00+15сз576073 0.1 1019859
18:00+15сз466472 0.1 1020460
21:00+12юз22765 0.1 102216
26 мая, чт
чт2600:00+10юз228327 0.0 102216
03:00+10юз228092 0.0 102215
06:00+12юз237893 0.0 1022112
09:00+16з34540 0.0 10221237
12:00+18сз23435 0.0 10211897
15:00+20з12418 0.0 10202071
18:00+19юв115174 0.0 1019937
21:00+14ююв1155100 0.0 102011
27 мая, пт
пт2700:00+13ююз2260100 0.0 101917
03:00+13зюз2260100 0.0 101912
06:00+12з256743 0.0 1020175
09:00+17з475913 0.0 1019787
12:00+19зсз684891 0.0 10191368
15:00+20зсз795732 0.0 10181445
18:00+18з477120 0.1 1018670
21:00+14юз22850 0.1 101919
28 мая, сб
сб2800:00+13юз22880 0.0 101912
03:00+12ююз22892 0.0 101910
06:00+14ю22850 0.0 101968
09:00+19ююв23610 0.0 1017797
12:00+23юв335417 0.0 10161458
15:00+24юв435210 0.0 10151751
18:00+22вюв36645 0.0 1016282
21:00+18вюв22760 0.0 101613
29 мая, вс
вс2900:00+16вюв368113 0.0 101599
03:00+14юв39782 0.0 1015152
06:00+15юв28730 0.0 1016210
09:00+20вюв46570 0.0 1015536
12:00+24вюв44530 0.0 1015963
15:00+25в32510 0.0 10141230
18:00+25юв23630 0.0 1015273
21:00+19юв22760 0.0 101611